{"data":{"norad_id":68833,"epoch":"2026-05-11T14:54:14.200416Z","epoch_age_seconds":1234469,"freshness":"OLD","line1":"1 68833U 26091C   26131.62099769  .00001851  00000+0  10239-3 0  9999","line2":"2 68833  55.0031 181.4760 0010473 338.0609  21.9961 15.18972133  2645","mean_motion":15.18972133,"eccentricity":0.0010473,"inclination_deg":55.0031,"raan_deg":181.476,"arg_perigee_deg":338.0609,"mean_anomaly_deg":21.9961,"bstar":0.00010239,"rev_number":264,"period_min":94.800949188974,"perigee_km":501.73294877922,"apogee_km":516.15863239238,"semimajor_km":6887.0827905858,"source":"CELESTRAK","updated_at":"2026-05-25T13:38:08.124759Z"}}